Simultaneous Nadir Overpasses (SNOs) Predictions

Prediction of SNOs between METOP-C and LANDSAT-8 Satellite Orbit:

Table of predicted SNOs for the next 14.0 days since TLE Epoch: 3/23/2024
Index Date (METOP-C) Time (METOP-C) Lat,Lon (METOP-C) SZA (METOP-C ) Date (LANDSAT-8) Time (LANDSAT-8) Lat,Lon (LANDSAT-8) SZA (LANDSAT-8 ) Distance(km) Time Diff (sec)
1 03/24/2024 14:05:41 -81.14,-171.77 98.75 03/24/2024 14:06:38 -81.14,-171.91 98.74 2.49 57
2 03/24/2024 14:56:20 81.15, -4.07 81.28 03/24/2024 14:56:04 81.15, -4.16 81.27 1.50 16
3 03/27/2024 09:40:01 -81.14,-105.53 99.85 03/27/2024 09:40:48 -81.13,-105.62 99.85 1.60 47
4 03/27/2024 10:30:39 81.16, 62.55 80.23 03/27/2024 10:30:13 81.16, 62.47 80.21 1.51 26
5 03/30/2024 05:14:21 -81.14, -39.05 100.92 03/30/2024 05:14:57 -81.15, -38.96 100.89 1.72 36
6 03/30/2024 06:05:00 81.15, 128.67 79.12 03/30/2024 06:04:23 81.15, 128.72 79.11 0.97 37
7 04/02/2024 00:48:41 -81.14, 27.29 101.99 04/02/2024 00:49:06 -81.13, 27.33 101.97 0.66 25
8 04/02/2024 01:39:19 81.16,-164.60 78.10 04/02/2024 01:38:31 81.16,-164.66 78.07 1.06 48
9 04/04/2024 20:23:00 -81.14, 93.86 103.02 04/04/2024 20:23:13 -81.15, 93.97 103.00 2.07 13



Historial Predications of SNOs between METOP-C and LANDSAT-8
